Kenosha, WI

9:40 PM CDT on August 17, 2017 (GMT -0500)
Kenosha Regional

Weather History for KENW - August, 2013

Change the Weather History Date:

Sunday, August 4, 2013

  Actual Average Record
Temperature  
Mean Temperature 63 °F -  
Max Temperature 72 °F 77 °F 95 °F (1955)
Min Temperature 55 °F 60 °F 46 °F (1997)
Degree Days  
Heating Degree Days 2    
Growing Degree Days 13 (Base 50)    
Moisture  
Dew Point 56 °F    
Average Humidity 74    
Maximum Humidity 96    
Minimum Humidity 57    
Precipitation  
Precipitation 0.00 in - - ()
Sea Level Pressure  
Sea Level Pressure 30.18 in    
Wind  
Wind Speed 6 mph (ENE)    
Max Wind Speed 12 mph    
Max Gust Speed -    
Visibility 10 miles    
Events      
Averages and records for this station are not official NWS values.
T = Trace of Precipitation, MM = Missing Value Source: NWS Daily Summary

Daily Weather History Graph

Daily Weather History Graph

Search for Another Location

Airport or City:

Trip Planner

Search our weather history database for the weather conditions in past years. The results will help you decide how hot, cold, wet, or windy it might be!

Date:

Astronomy

Aug. 04, 2013 Rise Set
Actual Time 5:47 AM CDT 8:07 PM CDT
Civil Twilight 5:15 AM CDT 8:39 PM CDT
Nautical Twilight 4:36 AM CDT 9:18 PM CDT
Astronomical Twilight 3:52 AM CDT 10:01 PM CDT
Moon 3:47 AM CDT (8/4) 6:30 PM CDT (8/4)
Length of Visible Light 15h 23m
Length of Day
14h 20m
Waning Crescent, 4% of the Moon is Illuminated
Aug 4
Waning Crescent
Aug 6
New
Aug 14
First Quarter
Aug 20
Full
Aug 28
Last Quarter

Hourly Weather History & Observations

Time (CDT) Temp. Dew Point Humidity Pressure Visibility Wind Dir Wind Speed Gust Speed Precip Events Conditions
12:53 AM 55.0 °F 54.0 °F 96% 30.13 in 7.0 mi West 3.5 mph - N/A   Clear
1:53 AM 57.0 °F 55.0 °F 93% 30.14 in 4.0 mi West 3.5 mph - N/A   Clear
2:53 AM 59.0 °F 55.0 °F 87% 30.15 in 10.0 mi NNW 4.6 mph - N/A   Clear
3:53 AM 57.0 °F 53.1 °F 87% 30.16 in 10.0 mi NW 3.5 mph - N/A   Clear
4:53 AM 57.9 °F 54.0 °F 87% 30.15 in 10.0 mi North 5.8 mph - N/A   Clear
5:53 AM 57.9 °F 55.9 °F 93% 30.17 in 7.0 mi North 5.8 mph - N/A   Clear
6:53 AM 61.0 °F 59.0 °F 93% 30.19 in 8.0 mi NE 4.6 mph - N/A   Clear
7:53 AM 66.0 °F 57.9 °F 75% 30.19 in 10.0 mi ENE 6.9 mph - N/A   Clear
8:53 AM 68.0 °F 57.9 °F 70% 30.23 in 10.0 mi ENE 8.1 mph - N/A   Partly Cloudy
9:53 AM 70.0 °F 57.0 °F 63% 30.23 in 10.0 mi ENE 8.1 mph - N/A   Mostly Cloudy
10:01 AM 69.8 °F 57.2 °F 64% 30.23 in 10.0 mi ENE 9.2 mph - N/A   Mostly Cloudy
10:35 AM 69.8 °F 57.2 °F 64% 30.23 in 10.0 mi ENE 8.1 mph - N/A   Mostly Cloudy
10:53 AM 71.1 °F 57.0 °F 61% 30.23 in 10.0 mi East 9.2 mph - N/A   Scattered Clouds
11:53 AM 69.1 °F 55.9 °F 63% 30.23 in 10.0 mi East 8.1 mph - N/A   Mostly Cloudy
12:53 PM 71.1 °F 57.0 °F 61% 30.21 in 10.0 mi ENE 11.5 mph - N/A   Clear
1:53 PM 71.1 °F 55.0 °F 57% 30.20 in 10.0 mi ENE 10.4 mph - N/A   Clear
2:53 PM 70.0 °F 54.0 °F 57% 30.19 in 10.0 mi ESE 9.2 mph - N/A   Partly Cloudy
3:53 PM 70.0 °F 55.0 °F 59% 30.18 in 10.0 mi East 6.9 mph - N/A   Clear
4:53 PM 68.0 °F 54.0 °F 61% 30.19 in 10.0 mi East 8.1 mph - N/A   Scattered Clouds
5:53 PM 66.9 °F 54.0 °F 63% 30.17 in 10.0 mi East 9.2 mph - N/A   Mostly Cloudy
6:53 PM 64.9 °F 55.0 °F 70% 30.16 in 10.0 mi East 6.9 mph - N/A   Clear
7:53 PM 64.0 °F 55.0 °F 73% 30.16 in 10.0 mi East 4.6 mph - N/A   Clear
8:53 PM 63.0 °F 55.9 °F 78% 30.14 in 10.0 mi East 4.6 mph - N/A   Clear
9:53 PM 61.0 °F 55.0 °F 81% 30.15 in 10.0 mi East 3.5 mph - N/A   Clear
10:53 PM 59.0 °F 54.0 °F 83% 30.15 in 10.0 mi Calm Calm - N/A   Clear
11:53 PM 57.0 °F 54.0 °F 89% 30.15 in 10.0 mi Calm Calm - N/A   Scattered Clouds